모두
Centerville Muni Airport (Centerville, TN) GHM 기상
There is no TAF data available at GHM or any nearby airports.
There is no METAR data available at GHM. Showing METAR data for M02 (20 mi 북).
최근 M02 METAR 이력(GHM에 대한 데이터 없음)
| Date | Time (CDT) | Flight Rules | Wind Dir. | Speed | Type | Height AGL (ft) | Visibility | Temp (°C) | Temp (°F) | Dew Point (°C) | Dew Point (°F) | Rel. Humid. | Pressure | Density Altitude | Remarks |
|---|---|---|---|---|---|---|---|---|---|---|---|---|---|---|---|
| 04-5월 | 12:55 | VFR | 230° | 11 kt | 10 miles | 25° | 77° | 10° | 50° | 39% | 29.89 in Hg | 2,122 ft | Wind gusting to 16 KT | ||
| 04-5월 | 12:35 | VFR | 240° | 11 kt | 10 miles | 25° | 77° | 11° | 51° | 41% | 29.90 in Hg | 2,112 ft | Wind gusting to 17 KT | ||
| 04-5월 | 12:15 | VFR | 230° | 11 kt | 10 miles | 24° | 75° | 10° | 50° | 41% | 29.90 in Hg | 1,992 ft | Wind gusting to 17 KT | ||
| 04-5월 | 11:55 | VFR | 240° | 12 kt | 10 miles | 24° | 75° | 10° | 50° | 41% | 29.91 in Hg | 1,982 ft | |||
| 04-5월 | 11:15 | VFR | 260° | 10 kt | 10 miles | 23° | 73° | 10° | 50° | 44% | 29.93 in Hg | 1,842 ft | Wind gusting to 15 KT | ||
| 04-5월 | 10:55 | VFR | 220° | 13 kt | 10 miles | 23° | 73° | 10° | 50° | 44% | 29.93 in Hg | 1,842 ft | Wind gusting to 19 KT | ||
| 04-5월 | 10:15 | VFR | 240° | 11 kt | 10 miles | 22° | 71° | 10° | 50° | 46% | 29.93 in Hg | 1,722 ft | |||
| 04-5월 | 09:55 | VFR | 230° | 11 kt | 10 miles | 21° | 69° | 10° | 50° | 49% | 29.94 in Hg | 1,592 ft | |||
| 04-5월 | 09:35 | VFR | 230° | 11 kt | 10 miles | 20° | 68° | 10° | 50° | 53% | 29.94 in Hg | 1,472 ft | |||
| 04-5월 | 09:15 | VFR | 240° | 10 kt | 10 miles | 19° | 66° | 10° | 50° | 56% | 29.94 in Hg | 1,352 ft | Wind gusting to 16 KT | ||
| 04-5월 | 08:55 | VFR | 210° | 11 kt | 10 miles | 17° | 62° | 9° | 48° | 59% | 29.94 in Hg | 1,112 ft | |||
| 04-5월 | 08:35 | VFR | 220° | 13 kt | 10 miles | 16° | 60° | 9° | 48° | 63% | 29.94 in Hg | 992 ft | |||
| 04-5월 | 08:15 | VFR | 220° | 9 kt | 10 miles | 15° | 59° | 8° | 46° | 63% | 29.94 in Hg | 872 ft | Wind gusting to 16 KT | ||
| 04-5월 | 07:55 | VFR | 220° | 10 kt | 10 miles | 14° | 57° | 8° | 46° | 67% | 29.94 in Hg | 752 ft | |||
| 04-5월 | 07:35 | VFR | 220° | 8 kt | 10 miles | 14° | 57° | 7° | 44° | 63% | 29.94 in Hg | 752 ft | |||
| 04-5월 | 07:15 | VFR | 220° | 7 kt | 10 miles | 13° | 55° | 7° | 44° | 67% | 29.93 in Hg | 642 ft | |||
| 04-5월 | 06:55 | VFR | 220° | 8 kt | 10 miles | 13° | 55° | 6° | 42° | 62% | 29.94 in Hg | 632 ft | |||
| 04-5월 | 06:35 | VFR | 230° | 8 kt | 10 miles | 12° | 53° | 6° | 42° | 67% | 29.93 in Hg | 522 ft | |||
| 04-5월 | 06:15 | VFR | 220° | 8 kt | 10 miles | 12° | 53° | 6° | 42° | 67% | 29.92 in Hg | 532 ft | |||
| 04-5월 | 05:55 | VFR | 220° | 10 kt | 10 miles | 12° | 53° | 6° | 42° | 67% | 29.92 in Hg | 532 ft | |||
| 04-5월 | 05:35 | VFR | 230° | 11 kt | 10 miles | 13° | 55° | 6° | 42° | 62% | 29.92 in Hg | 652 ft | |||
| 04-5월 | 05:15 | VFR | 230° | 10 kt | 10 miles | 12° | 53° | 6° | 42° | 67% | 29.92 in Hg | 532 ft | |||
| 04-5월 | 04:55 | VFR | 220° | 9 kt | 10 miles | 12° | 53° | 5° | 41° | 62% | 29.92 in Hg | 532 ft | |||
| 04-5월 | 04:35 | VFR | 220° | 8 kt | 10 miles | 11° | 51° | 5° | 41° | 66% | 29.93 in Hg | 402 ft |
로그인
| 귀하의 브라우저는 지원되지 않습니다.. 브라우저를 업그레이드하세요 |
